Location: 3 Angels Observatory
(30.5437°N, 88.5068°W)
Time: 22:10:59
(UTC-05:00)

Amateur Radio Satellites - All Passes

Search period start: 30 September 2016 21:40
Search period end: 01 October 2016 21:40
Location: 3 Angels Observatory, 30.5437°N, 88.5068°W

Satellite Date Start Highest point End Downlink Frequencies (MHz)
Time Altitude Azimuth
RS-15 30 Sep 21:44:27 21:53:52 27° 316° (NW) 22:03:41 29.354- 29.394
AAUSAT CUBESAT 2 30 Sep 21:48:53 21:51:24 16° 265° (W) 21:53:57 437.432
Oscar 11 30 Sep 21:51:28 21:55:32 41° 261° (W) 21:59:38 145.826/435.025
HUMSAT D 30 Sep 21:52:00 21:55:30 29° 73° (ENE) 21:59:03 437.325/437.525
ZACube-1 30 Sep 22:00:15 22:03:53 30° 262° (W) 22:07:32 437.345
ANTELSAT 30 Sep 22:04:37 22:07:03 14° 95° (E) 22:09:29 437.575/2403.000
TIGRISAT 30 Sep 22:23:12 22:26:44 23° 97° (E) 22:30:19 435.000
DELFI C3 30 Sep 22:39:49 22:43:11 26° 263° (W) 22:46:37 145.870
SRMSAT 30 Sep 22:43:14 22:48:14 29° 177° (S) 22:53:14 437.500
UNISAT 6 30 Sep 23:04:06 23:08:35 79° 100° (E) 23:13:10 437.425
CUBEBUG 1 30 Sep 23:06:19 23:09:27 19° 70° (ENE) 23:12:35 437.445
VELOX 1 30 Sep 23:11:12 23:14:01 17° 69° (ENE) 23:16:50 145.980
50 SAT 30 Sep 23:11:31 23:12:58 12° 70° (ENE) 23:14:25 437.505
BEESAT 3 30 Sep 23:17:31 23:20:41 24° 111° (ESE) 23:23:53 437.485
ESTCUBE 1 30 Sep 23:24:23 23:28:48 54° 75° (ENE) 23:33:14 437.505/2401.250
HUMSAT D 30 Sep 23:28:42 23:31:06 15° 265° (W) 23:33:32 437.325/437.525
JUGNU 30 Sep 23:30:13 23:34:16 19° 194° (SSW) 23:38:18 437.505
SPROUT 30 Sep 23:32:13 23:34:30 14° 69° (ENE) 23:36:48 437.525
DUCHIFAT 1 30 Sep 23:33:08 23:35:17 14° 95° (E) 23:37:26 145.980
AUBIESAT-1 30 Sep 23:35:22 23:38:12 19° 68° (ENE) 23:40:54 437.475
QB50P1 30 Sep 23:38:14 23:41:15 19° 96° (E) 23:44:17 145.935-145.965
ANTELSAT 30 Sep 23:39:38 23:43:48 39° 286° (WNW) 23:48:01 437.575/2403.000
POPSAT HIP 1 30 Sep 23:51:34 23:55:12 27° 98° (E) 23:58:48 437.405
UKube-1 30 Sep 23:52:00 23:55:22 22° 71° (ENE) 23:58:44 .
TIGRISAT 30 Sep 23:59:41 00:03:17 25° 288° (WNW) 00:06:57 435.000
AISAT 01 Oct 00:02:23 00:06:49 75° 76° (ENE) 00:11:15 437.250
NANOSAT C BR1 01 Oct 00:05:13 00:09:10 39° 99° (E) 00:13:07 145.865
SO-50 01 Oct 00:10:17 00:14:49 89° 59° (ENE) 00:19:14 436.795
M-CUBED/EXP-1 PRIME 01 Oct 00:14:17 00:18:29 81° 73° (ENE) 00:22:21 437.505
BEESAT 2 01 Oct 00:19:12 00:23:05 69° 116° (ESE) 00:27:02 435.950
DX 1 01 Oct 00:26:03 00:30:26 82° 74° (ENE) 00:34:49 434.975-435.025
QB50P2 01 Oct 00:31:43 00:35:57 78° 282° (WNW) 00:40:10 145.880/145.840
SRMSAT 01 Oct 00:32:05 00:36:55 26° 187° (S) 00:41:46 437.500
POLYITAN 1 01 Oct 00:33:52 00:38:06 78° 283° (WNW) 00:42:21 437.675
JAS-2 01 Oct 00:37:20 00:45:07 72° 102° (ESE) 00:52:15 435.910
TISAT 1 01 Oct 00:39:59 00:42:33 16° 69° (ENE) 00:45:06 437.305
CUBEBUG 1 01 Oct 00:41:43 00:45:30 28° 263° (W) 00:49:18 437.445
50 SAT 01 Oct 00:42:57 00:46:07 29° 262° (W) 00:49:20 437.505
VELOX 1 01 Oct 00:46:09 00:50:09 33° 261° (W) 00:54:11 145.980
BUGSAT 1 01 Oct 00:55:14 00:59:12 56° 101° (E) 01:03:11 437.445
BEESAT 3 01 Oct 00:55:27 00:58:15 19° 305° (NW) 01:01:06 437.485
Cosmos 2491 01 Oct 00:58:46 01:05:45 25° 74° (ENE) 01:12:39 435.465 / 435.565
SPROUT 01 Oct 01:06:11 01:10:06 35° 262° (W) 01:14:00 437.525
DUCHIFAT 1 01 Oct 01:07:13 01:11:00 34° 287° (WNW) 01:14:48 145.980
AUBIESAT-1 01 Oct 01:09:09 01:12:28 24° 257° (WSW) 01:15:38 437.475
QB50P1 01 Oct 01:13:29 01:16:56 25° 288° (WNW) 01:20:23 145.935-145.965
BEESAT 01 Oct 01:27:10 01:27:46 10° 65° (ENE) 01:28:22 436.000
UKube-1 01 Oct 01:27:49 01:31:14 23° 263° (W) 01:34:41 .
POPSAT HIP 1 01 Oct 01:27:53 01:30:43 18° 290° (WNW) 01:33:33 437.405
AIST 2 01 Oct 01:36:10 01:37:21 11° 107° (ESE) 01:38:34 435.215
NANOSAT C BR1 01 Oct 01:42:40 01:44:30 13° 292° (WNW) 01:46:19 145.865
YUBILEINY 01 Oct 01:50:05 01:57:10 28° 85° (E) 02:04:13 435.215
ISS 01 Oct 02:02:49 02:05:31 23° 39° (NE) 02:08:13 145.825
Gurwin Techsat 1B 01 Oct 02:06:54 02:11:20 27° 97° (E) 02:15:45 435.225
TISAT 1 01 Oct 02:14:12 02:17:53 30° 262° (W) 02:21:36 437.305
Oscar 19 01 Oct 02:20:10 02:25:20 86° 103° (ESE) 02:30:27 437.125/150
SRMSAT 01 Oct 02:22:03 02:25:32 16° 196° (SSW) 02:29:01 437.500
JAS-2 01 Oct 02:24:03 02:29:10 20° 298° (WNW) 02:34:07 435.910
RS-15 01 Oct 02:27:22 02:34:05 16° 31° (NNE) 02:40:44 29.354- 29.394
Cosmos 2504 01 Oct 02:31:02 02:34:40 14° 83° (E) 02:38:14 435.465 / 435.565
ITUPSAT 1 01 Oct 02:36:30 02:41:13 67° 75° (ENE) 02:45:57 437.325
SWISSCUBE 01 Oct 02:47:36 02:52:20 79° 257° (WSW) 02:57:08 437.505
Cosmos 2491 01 Oct 02:54:22 03:02:54 56° 269° (W) 03:11:22 435.465 / 435.565
BEESAT 01 Oct 03:00:15 03:04:56 64° 259° (WSW) 03:09:40 436.000
PCSat 01 Oct 03:08:57 03:14:04 44° 109° (ESE) 03:19:12 145.827
AIST 2 01 Oct 03:11:29 03:15:22 43° 300° (WNW) 03:19:18 435.215
ITAMSAT 1 01 Oct 03:21:11 03:26:01 37° 99° (E) 03:30:49 435.822/435.867
ISS 01 Oct 03:39:18 03:41:55 22° 232° (SW) 03:44:32 145.825
YUBILEINY 01 Oct 03:45:01 03:53:26 50° 280° (W) 04:01:53 435.215
Gurwin Techsat 1B 01 Oct 03:46:39 03:51:09 29° 290° (WNW) 03:55:40 435.225
AO-7 01 Oct 03:54:07 04:01:49 41° 101° (E) 04:09:28 29.400- 29.500
KKS-1 01 Oct 03:55:17 03:59:32 46° 74° (ENE) 04:03:46 437.445
MOZHAYETS 4 01 Oct 03:55:22 03:59:55 78° 76° (ENE) 04:04:30
STARS 01 Oct 04:19:17 04:23:21 39° 73° (ENE) 04:27:25 437.465
Cosmos 2504 01 Oct 04:19:48 04:27:14 70° 277° (W) 04:34:24 435.465 / 435.565
RS-15 01 Oct 04:37:55 04:50:05 58° 57° (ENE) 05:01:49 29.354- 29.394
PCSat 01 Oct 04:53:42 04:57:36 20° 304° (NW) 05:01:33 145.827
AIST 1 01 Oct 04:56:52 05:01:14 73° 93° (E) 05:05:36
CUSAT 1 01 Oct 04:59:57 05:04:55 20° 68° (ENE) 05:09:14 437.405
ITAMSAT 1 01 Oct 05:01:22 05:05:10 21° 292° (WNW) 05:08:57 435.822/435.867
HORYU 2 01 Oct 05:12:32 05:15:51 20° 97° (E) 05:19:08 437.375
DANDE 01 Oct 05:22:43 05:27:14 16° 66° (ENE) 05:31:29 436.750
CUBESAT XI-V 01 Oct 05:24:39 05:29:20 90° 102° (ESE) 05:34:04 437.345
KKS-1 01 Oct 05:34:46 05:36:14 11° 266° (W) 05:37:42 437.445
O/OREOS (USA 219) 01 Oct 05:40:39 05:43:51 19° 101° (E) 05:47:04 437.305
AO-7 01 Oct 05:47:00 05:54:21 37° 295° (WNW) 06:01:42 29.400- 29.500
Cubesat XI-IV 01 Oct 05:51:29 05:51:53 10° 92° (E) 05:52:18 437.490
AO-85 01 Oct 05:51:35 05:55:36 75° 62° (ENE) 05:59:26 145.980
STARS 01 Oct 05:57:41 05:59:46 13° 265° (W) 06:01:52 437.465
GOMX 1 01 Oct 06:16:14 06:19:28 21° 96° (E) 06:22:38 467.674
STRAND 1 01 Oct 06:19:48 06:22:25 14° 66° (ENE) 06:25:02 437.568
CUSAT 1 01 Oct 06:40:37 06:47:30 53° 269° (W) 06:52:56 437.405
BRITE-PL 01 Oct 06:45:00 06:49:27 54° 285° (WNW) 06:53:36 437.365/2234.400
HORYU 2 01 Oct 06:48:33 06:52:18 27° 289° (WNW) 06:56:03 437.375
RS-15 01 Oct 06:51:18 07:01:54 36° 255° (WSW) 07:12:15 29.354- 29.394
NOAA 15 01 Oct 06:57:33 07:02:51 74° 103° (ESE) 07:08:05 137.62
NOAA 18 01 Oct 06:58:05 07:03:18 44° 100° (E) 07:08:31 137.9125
DANDE 01 Oct 07:02:47 07:11:08 88° 266° (W) 07:18:13 436.750
PHONESAT 2.4 01 Oct 07:10:35 07:11:10 10° 140° (SE) 07:11:45 2401.200-2431.200
LilacSat-2 01 Oct 07:18:11 07:21:59 59° 283° (WNW) 07:25:47 437.200
O/OREOS (USA 219) 01 Oct 07:19:02 07:22:59 29° 294° (WNW) 07:26:58 437.305
Cosmos 2499 01 Oct 07:22:51 07:26:58 16° 84° (E) 07:31:02 435.465 / 435.565
CUTE-I 01 Oct 07:25:55 07:31:16 72° 285° (WNW) 07:36:36 437.470
Cubesat XI-IV 01 Oct 07:26:59 07:32:19 71° 284° (WNW) 07:37:39 437.490
SEEDS 01 Oct 07:50:44 07:51:36 10° 93° (E) 07:52:26 437.485
CUTE 1.7 + AOD 2 01 Oct 07:54:11 07:57:16 19° 96° (E) 08:00:19 437.475
GOMX 1 01 Oct 07:54:15 07:57:26 21° 289° (WNW) 08:00:34 467.674
DOVE 4 01 Oct 07:55:50 07:59:52 53° 284° (WNW) 08:03:56 437.250
CANX-2 01 Oct 07:55:52 07:59:20 24° 96° (E) 08:02:48 2200.000
STRAND 1 01 Oct 07:56:08 08:01:05 52° 259° (W) 08:06:04 437.568
GONETS M04 01 Oct 08:07:39 08:16:09 55° 90° (E) 08:24:41
PRISM 01 Oct 08:23:12 08:26:25 22° 71° (ENE) 08:29:39 437.425
HO-68 01 Oct 08:38:53 08:46:01 67° 103° (ESE) 08:53:06 435.675
NOAA 18 01 Oct 08:39:50 08:43:34 19° 293° (WNW) 08:47:18 137.9125
CINEMA 3 01 Oct 08:40:12 08:44:25 74° 282° (WNW) 08:48:47 145.822/145.860
NOAA 15 01 Oct 08:40:45 08:41:54 11° 296° (WNW) 08:43:04 137.62
PHONESAT 2.4 01 Oct 08:44:01 08:46:55 75° 332° (NNW) 08:49:49 2401.200-2431.200
COMPASS 1 01 Oct 08:47:44 08:51:40 38° 99° (E) 08:55:34 437.405
DANDE 01 Oct 08:49:02 08:52:28 13° 281° (W) 08:55:44 436.750
FUNcube-1 01 Oct 09:09:49 09:13:01 19° 96° (E) 09:16:15 145.935
Cosmos 2499 01 Oct 09:12:16 09:19:21 61° 278° (W) 09:26:19 435.465 / 435.565
BEESAT 3 01 Oct 09:16:28 09:20:13 39° 60° (ENE) 09:23:56 437.485
CUBEBUG 2 01 Oct 09:22:12 09:26:36 83° 104° (ESE) 09:31:06 437.445
SEEDS 01 Oct 09:23:23 09:27:26 44° 285° (WNW) 09:31:28 437.485
CUTE 1.7 + AOD 2 01 Oct 09:29:27 09:33:01 26° 288° (WNW) 09:36:33 437.475
CANX-2 01 Oct 09:31:46 09:35:00 21° 289° (WNW) 09:38:15 2200.000
UWE-3 01 Oct 09:32:17 09:36:41 69° 101° (ESE) 09:41:10 435.000/436.395/437.385
AAUSAT CUBESAT 2 01 Oct 09:34:47 09:38:56 66° 283° (WNW) 09:43:03 437.432
Oscar 11 01 Oct 09:43:56 09:48:11 52° 100° (E) 09:52:26 145.826/435.025
ZACube-1 01 Oct 09:53:01 09:57:25 74° 101° (ESE) 10:01:53 437.345
UNISAT 6 01 Oct 09:57:51 10:01:38 32° 73° (ENE) 10:05:26 437.425
PRISM 01 Oct 09:58:21 10:01:33 22° 263° (W) 10:04:47 437.425
GONETS M04 01 Oct 10:06:13 10:13:15 26° 286° (WNW) 10:20:20
BEESAT 2 01 Oct 10:19:46 10:23:47 74° 244° (WSW) 10:27:45 435.950
PHONESAT 2.4 01 Oct 10:21:20 10:23:18 16° 346° (NNW) 10:25:17 2401.200-2431.200
DELFI C3 01 Oct 10:22:06 10:26:02 55° 100° (E) 10:29:56 145.870
COMPASS 1 01 Oct 10:24:57 10:26:48 13° 291° (WNW) 10:28:41 437.405
HO-68 01 Oct 10:28:23 10:33:01 19° 298° (WNW) 10:37:39 435.675
ANTELSAT 01 Oct 10:32:32 10:36:48 89° 258° (WSW) 10:41:04 437.575/2403.000
POPSAT HIP 1 01 Oct 10:41:31 10:42:10 10° 67° (ENE) 10:42:48 437.405
JAS-2 01 Oct 10:44:55 10:49:06 18° 62° (ENE) 10:53:33 435.910
FUNcube-1 01 Oct 10:45:26 10:49:10 28° 287° (WNW) 10:52:58 145.935
TIGRISAT 01 Oct 10:52:06 10:56:15 53° 260° (W) 11:00:24 435.000
NANOSAT C BR1 01 Oct 10:53:18 10:55:36 15° 69° (ENE) 10:57:54 145.865
BEESAT 3 01 Oct 10:56:04 10:57:27 12° 252° (WSW) 10:58:49 437.485
HUMSAT D 01 Oct 11:15:28 11:19:42 65° 284° (WNW) 11:23:58 437.325/437.525
QB50P2 01 Oct 11:18:49 11:22:39 35° 74° (ENE) 11:26:28 145.880/145.840
POLYITAN 1 01 Oct 11:21:00 11:24:49 35° 74° (ENE) 11:28:38 437.675
Oscar 11 01 Oct 11:23:10 11:23:48 10° 293° (WNW) 11:24:25 145.826/435.025
ESTCUBE 1 01 Oct 11:23:33 11:26:37 18° 95° (E) 11:29:39 437.505/2401.250
UNISAT 6 01 Oct 11:35:59 11:38:23 15° 265° (W) 11:40:47 437.425
AIST 2 01 Oct 11:38:21 11:41:38 22° 56° (NE) 11:44:53 435.215
BUGSAT 1 01 Oct 11:40:23 11:43:14 19° 71° (ENE) 11:46:04 437.445
DUCHIFAT 1 01 Oct 11:52:47 11:56:57 79° 78° (ENE) 12:01:07 145.980
PHONESAT 2.4 01 Oct 11:58:53 12:00:08 12° 3° (N) 12:01:24 2401.200-2431.200
AISAT 01 Oct 11:58:53 12:02:15 21° 97° (E) 12:05:36 437.250
QB50P1 01 Oct 11:59:20 12:03:31 72° 258° (WSW) 12:07:42 145.935-145.965
PCSat 01 Oct 12:04:43 12:06:45 12° 51° (NE) 12:08:47 145.827
POPSAT HIP 1 01 Oct 12:13:25 12:17:27 47° 260° (W) 12:21:31 437.405
50 SAT 01 Oct 12:15:47 12:19:00 29° 98° (E) 12:22:12 437.505
DX 1 01 Oct 12:20:35 12:23:55 21° 97° (E) 12:27:14 434.975-435.025
JAS-2 01 Oct 12:26:50 12:33:10 69° 259° (W) 12:40:23 435.910
NANOSAT C BR1 01 Oct 12:27:13 12:31:00 33° 262° (W) 12:34:48 145.865
CUBEBUG 1 01 Oct 12:35:07 12:39:26 82° 100° (E) 12:43:44 437.445
VELOX 1 01 Oct 12:41:16 12:45:39 70° 102° (ESE) 12:50:00 145.980
AUBIESAT-1 01 Oct 12:52:20 12:55:14 27° 103° (ESE) 12:58:13 437.475
QB50P2 01 Oct 12:56:26 12:58:30 13° 266° (W) 13:00:33 145.880/145.840
SPROUT 01 Oct 12:57:08 13:01:19 57° 100° (E) 13:05:30 437.525
POLYITAN 1 01 Oct 12:58:38 13:00:40 13° 266° (W) 13:02:42 437.675
ESTCUBE 1 01 Oct 12:59:25 13:03:23 31° 288° (WNW) 13:07:20 437.505/2401.250
BUGSAT 1 01 Oct 13:15:02 13:18:24 24° 263° (W) 13:21:44 437.445
AIST 2 01 Oct 13:16:34 13:20:01 25° 249° (WSW) 13:23:28 435.215
UKube-1 01 Oct 13:19:20 13:23:38 90° 6° (N) 13:27:56 .
Gurwin Techsat 1B 01 Oct 13:22:45 13:26:59 25° 69° (ENE) 13:31:14 435.225
Oscar 19 01 Oct 13:31:10 13:36:19 70° 75° (ENE) 13:41:30 437.125/150
M-CUBED/EXP-1 PRIME 01 Oct 13:33:03 13:36:11 45° 289° (WNW) 13:39:26 437.505
PHONESAT 2.4 01 Oct 13:34:22 13:36:51 24° 20° (NNE) 13:39:21 2401.200-2431.200
AISAT 01 Oct 13:35:04 13:38:35 24° 289° (WNW) 13:42:06 437.250
PCSat 01 Oct 13:45:17 13:50:43 79° 247° (WSW) 13:56:06 145.827
50 SAT 01 Oct 13:50:43 13:52:09 12° 291° (WNW) 13:53:34 437.505
Cosmos 2491 01 Oct 13:52:27 14:00:07 35° 87° (E) 14:07:49 435.465 / 435.565
DX 1 01 Oct 13:56:31 13:59:58 24° 289° (WNW) 14:03:24 434.975-435.025
YUBILEINY 01 Oct 14:01:47 14:10:24 65° 82° (E) 14:19:00 435.215
TISAT 1 01 Oct 14:02:56 14:07:03 59° 100° (E) 14:11:10 437.305
Cosmos 2504 01 Oct 14:18:20 14:24:51 29° 77° (ENE) 14:31:41 435.465 / 435.565
SO-50 01 Oct 14:18:25 14:23:15 75° 298° (WNW) 14:28:04 436.795
AUBIESAT-1 01 Oct 14:28:39 14:29:26 11° 294° (WNW) 14:30:14 437.475
ITAMSAT 1 01 Oct 14:33:50 14:38:23 32° 71° (ENE) 14:42:56 435.822/435.867
ITUPSAT 1 01 Oct 14:43:05 14:47:10 27° 97° (E) 14:51:12 437.325
AO-7 01 Oct 14:47:19 14:54:35 35° 64° (ENE) 15:01:49 29.400- 29.500
SWISSCUBE 01 Oct 14:53:31 14:58:03 41° 99° (E) 15:02:34 437.505
Gurwin Techsat 1B 01 Oct 15:02:05 15:06:43 31° 262° (W) 15:11:24 435.225
BEESAT 01 Oct 15:05:55 15:10:35 51° 101° (E) 15:15:14 436.000
PHONESAT 2.4 01 Oct 15:10:11 15:13:00 43° 213° (SSW) 15:15:49 2401.200-2431.200
Cosmos 2491 01 Oct 15:48:35 15:56:40 40° 282° (WNW) 16:04:51 435.465 / 435.565
KKS-1 01 Oct 15:53:20 15:55:37 14° 95° (E) 15:57:51 437.445
O/OREOS (USA 219) 01 Oct 15:56:11 15:59:00 16° 62° (ENE) 16:01:47 437.305
MOZHAYETS 4 01 Oct 15:56:23 16:00:23 28° 97° (E) 16:04:22
YUBILEINY 01 Oct 16:00:29 16:06:20 21° 277° (W) 16:12:14 435.215
Cosmos 2504 01 Oct 16:11:04 16:18:11 43° 270° (W) 16:25:48 435.465 / 435.565
ITAMSAT 1 01 Oct 16:13:48 16:17:47 23° 263° (W) 16:21:49 435.822/435.867
STARS 01 Oct 16:16:40 16:17:46 11° 94° (E) 16:18:51 437.465
ITUPSAT 1 01 Oct 16:21:00 16:24:48 24° 290° (WNW) 16:28:36 437.325
SWISSCUBE 01 Oct 16:32:35 16:35:26 16° 292° (WNW) 16:38:18 437.505
AO-7 01 Oct 16:39:17 16:47:03 43° 259° (WSW) 16:54:52 29.400- 29.500
BEESAT 01 Oct 16:45:43 16:47:52 13° 293° (WNW) 16:50:00 436.000
AIST 1 01 Oct 16:47:14 16:51:17 44° 267° (W) 16:55:18
CUTE-I 01 Oct 17:07:15 17:08:00 10° 64° (ENE) 17:08:46 437.470
Cubesat XI-IV 01 Oct 17:08:12 17:09:13 10° 64° (ENE) 17:10:13 437.490
GOMX 1 01 Oct 17:18:39 17:22:05 18° 70° (ENE) 17:25:25 467.674
CUBESAT XI-V 01 Oct 17:27:11 17:31:26 34° 98° (E) 17:35:38 437.345
KKS-1 01 Oct 17:28:09 17:32:14 38° 287° (WNW) 17:36:19 437.445
MOZHAYETS 4 01 Oct 17:33:51 17:37:19 21° 290° (WNW) 17:40:47
O/OREOS (USA 219) 01 Oct 17:34:16 17:38:30 37° 256° (WSW) 17:42:41 437.305
HORYU 2 01 Oct 17:40:10 17:44:30 59° 259° (W) 17:48:50 437.375
BRITE-PL 01 Oct 17:48:07 17:53:49 87° 77° (ENE) 17:59:25 437.365/2234.400
JUGNU 01 Oct 17:49:31 17:53:38 19° 166° (SSE) 17:57:44 437.505
STARS 01 Oct 17:50:05 17:54:16 46° 286° (WNW) 17:58:27 437.465
CUSAT 1 01 Oct 17:52:37 17:57:46 27° 85° (E) 18:03:44 437.405
LilacSat-2 01 Oct 17:54:56 17:58:07 27° 73° (ENE) 18:01:18 437.200
NOAA 15 01 Oct 18:11:50 18:17:05 67° 75° (ENE) 18:22:22 137.62
NOAA 18 01 Oct 18:18:49 18:24:04 49° 72° (ENE) 18:29:19 137.9125
DANDE 01 Oct 18:24:17 18:27:02 14° 79° (E) 18:30:06 436.750
GONETS M04 01 Oct 18:26:41 18:32:36 20° 71° (ENE) 18:38:29
ISS 01 Oct 18:38:18 18:41:26 49° 316° (NW) 18:44:36 145.825
CUTE-I 01 Oct 18:42:03 18:47:20 76° 258° (WSW) 18:52:39 437.470
Cubesat XI-IV 01 Oct 18:43:16 18:48:34 75° 258° (WSW) 18:53:53 437.490
RS-15 01 Oct 18:52:59 19:04:08 63° 110° (ESE) 19:15:52 29.354- 29.394
GOMX 1 01 Oct 18:54:38 18:59:47 45° 261° (W) 19:04:44 467.674
DOVE 4 01 Oct 18:54:40 18:59:41 76° 77° (ENE) 19:04:25 437.250
SRMSAT 01 Oct 18:56:45 18:58:04 11° 160° (SSE) 18:59:22 437.500
HO-68 01 Oct 19:02:14 19:08:06 28° 66° (ENE) 19:13:58 435.675
CUBESAT XI-V 01 Oct 19:05:25 19:08:30 18° 291° (WNW) 19:11:33 437.345
Cosmos 2499 01 Oct 19:08:48 19:15:44 33° 78° (ENE) 19:23:05 435.465 / 435.565
LilacSat-2 01 Oct 19:30:29 19:32:23 13° 266° (W) 19:34:18 437.200
CUSAT 1 01 Oct 19:33:19 19:39:15 43° 284° (WNW) 19:46:26 437.405
COMPASS 1 01 Oct 19:34:39 19:36:36 13° 69° (ENE) 19:38:34 437.405
CINEMA 3 01 Oct 19:36:11 19:40:30 49° 75° (ENE) 19:44:39 145.822/145.860
JUGNU 01 Oct 19:37:06 19:42:08 28° 175° (S) 19:47:09 437.505
NOAA 15 01 Oct 19:55:59 19:57:12 11° 267° (W) 19:58:25 137.62
AO-85 01 Oct 19:58:58 20:04:17 84° 296° (WNW) 20:09:19 145.980
NOAA 18 01 Oct 20:01:38 20:04:53 16° 265° (W) 20:08:09 137.9125
DANDE 01 Oct 20:03:34 20:08:36 58° 282° (WNW) 20:15:16 436.750
SEEDS 01 Oct 20:08:57 20:13:03 56° 76° (ENE) 20:17:12 437.485
STRAND 1 01 Oct 20:12:05 20:17:15 85° 103° (ESE) 20:22:25 437.568
CUBEBUG 2 01 Oct 20:15:16 20:18:58 31° 74° (ENE) 20:22:39 437.445
CUTE 1.7 + AOD 2 01 Oct 20:15:28 20:19:40 77° 257° (WSW) 20:23:56 437.475
CANX-2 01 Oct 20:17:40 20:21:49 60° 259° (W) 20:26:02 2200.000
AAUSAT CUBESAT 2 01 Oct 20:19:15 20:23:04 36° 74° (ENE) 20:26:54 437.432
GONETS M04 01 Oct 20:21:21 20:30:03 70° 268° (W) 20:38:41
UWE-3 01 Oct 20:24:29 20:27:54 25° 72° (ENE) 20:31:19 435.000/436.395/437.385
Oscar 11 01 Oct 20:33:56 20:37:04 20° 71° (ENE) 20:40:12 145.826/435.025
SRMSAT 01 Oct 20:42:11 20:46:38 22° 168° (SSE) 20:51:05 437.500
ZACube-1 01 Oct 20:43:56 20:47:22 26° 72° (ENE) 20:50:49 437.345
HO-68 01 Oct 20:48:42 20:55:27 45° 260° (W) 21:02:15 435.675
Cosmos 2499 01 Oct 21:01:34 21:08:44 40° 271° (W) 21:16:22 435.465 / 435.565
DELFI C3 01 Oct 21:03:38 21:05:58 15° 70° (ENE) 21:08:18 145.870
RS-15 01 Oct 21:06:55 21:17:10 35° 311° (NW) 21:27:58 29.354- 29.394
COMPASS 1 01 Oct 21:07:54 21:11:45 37° 261° (W) 21:15:40 437.405
JUGNU 01 Oct 21:25:43 21:30:41 27° 186° (S) 21:35:38 437.505
